Location: Unspecified
(48.8582°N, 2.2947°E)
Time: 07:05:51
(UTC+01:00)

OTV 5 (USA 277) - Visible Passes

Search period start: 20 November 2018 00:00
Search period end: 30 November 2018 00:00
Orbit: 339 x 348 km, 54.5° (Epoch: 14 November)

Date Brightness Start Highest point End Pass type
(mag) Time Alt. Az. Time Alt. Az. Time Alt. Az.
26 Nov ? 06:51:32 10° SSW 06:53:56 24° SE 06:56:20 10° E visible
27 Nov ? 07:14:25 10° SW 07:17:15 64° SSE 07:20:07 10° ENE visible
28 Nov ? 06:05:14 20° SSE 06:06:02 23° SE 06:08:24 10° E visible
28 Nov ? 07:37:55 10° WSW 07:40:45 54° NNW 07:43:36 10° NE visible
29 Nov ? 06:28:39 43° SSW 06:29:20 61° SSE 06:32:12 10° ENE visible
